Regional Weather Roundup
Issued by NWS State College, PA

Home | Current Version | Previous Version | Text Only | Print | Product List | Glossary On
Versions: 1 2 3 4 5 6 7 8 9 10 11 12 13 14 15 16 17 18 19 20 21 22 23 24 25 26 27 28 29 30 31 32 33 34 35 36 37 38 39 40 41 42 43 44 45 46 47 48 49 50
000
ASUS41 KCTP 160803
RWRCTP

REGIONAL WEATHER ROUNDUP
NATIONAL WEATHER SERVICE STATE COLLEGE PA
300 AM EST TUE JAN 16 2018

Note: "fair" indicates few or no clouds below 12,000 feet with no
significant weather and/or obstructions to visibility.

* = STATION THAT DOES NOT REPORT PRECIPITATION /E.G. RAIN...SNOW...ETC/
    THUNDER OR FOG.

PAZ002>004-007>009-013>016-020>023-029>032-160900-
WESTERN PENNSYLVANIA

CITY           SKY/WX    TMP DP  RH WIND       PRES   REMARKS
ERIE           FLURRIES  26  21  81 VRB7      30.31R
MEADVILLE      CLOUDY    23  22  96 SW5       30.27R
FRANKLIN*      LGT SNOW  21  19  92 S6        30.27S FOG     WCI  13
NEW CASTLE     LGT SNOW  25  25 100 VRB3      30.32R FOG
BEAVER COUNTY  NOT AVBL
BUTLER*        NOT AVBL
PITTSBURGH INT LGT SNOW  26  24  92 SW6       30.30R FOG
PITTSBURGH     CLOUDY    26  22  84 W7        30.30R
INDIANA*       CLOUDY    25  23  93 W5        30.34R FOG
LATROBE        CLOUDY    28  25  86 SW8       30.34R
WASHINGTON CO* FLURRIES  27  24  89 W5        30.34R
$$

PAZ004>006-010>012-017>019-024>028-033>037-041-042-045-046-049>053-160900-
CENTRAL PENNSYLVANIA

CITY           SKY/WX    TMP DP  RH WIND       PRES   REMARKS
BRADFORD       LGT SNOW  19  16  88 S3        30.23R FOG
DUBOIS         LGT SNOW  19  16  88 CALM      30.26R VSB 1
CLEARFIELD     LGT SNOW  19  17  92 N5        30.31R FOG     WCI  12
JOHNSTOWN      FLURRIES  20  14  77 SW5       30.24R WCI  13
ALTOONA        CLOUDY    24  16  71 S6        30.32S
STATE COLLEGE  CLOUDY    22  18  85 SW6       30.35R WCI  15
WILLIAMSPORT   LGT SNOW  24  20  84 NE12      30.39F FOG     WCI  13
SELINSGROVE    CLOUDY    25  19  78 CALM      30.43F
FT INDIANTOWN  CLOUDY    25  22  90 CALM      30.43F
CAPITAL CITY   CLOUDY    28  20  71 SE5       30.44F
HARRISBURG     CLOUDY    27  19  72 E3        30.44S
YORK           CLOUDY    27  26  96 CALM      30.42S
$$

PAZ038>040-043-044-047-048-054-055-060>062-067>071-160900-
EASTERN PENNSYLVANIA

CITY           SKY/WX    TMP DP  RH WIND       PRES   REMARKS
SCRANTON       CLOUDY    25  20  81 CALM      30.39R
MOUNT POCONO   CLOUDY    17  15  92 SE5       30.34R WCI  10
ALLENTOWN      CLOUDY    27  18  69 E5        30.46S
QUAKERTOWN*    CLOUDY    27  23  86 MISG      30.46F
READING        CLOUDY    29  25  85 S6        30.45S
LANCASTER      CLOUDY    27  23  85 CALM      30.45S FOG
COATESVILLE    LGT SNOW  28  27  93 CALM      30.45S
POTTSTOWN      CLOUDY    27  22  81 E3        30.47S
BLUE BELL      CLOUDY    28  25  86 E3        30.48F
DOYLESTOWN     CLOUDY    26  21  81 N5        30.46S
WILLOW GROVE   NOT AVBL
NORTH PHILA    CLOUDY    30  23  75 NE6       30.50R
PHILADELPHIA   CLOUDY    30  23  75 NE6       30.49S
$$




USA.gov is the U.S. government's official web portal to all federal, state and local government web resources and services.